Wind_Speed
27 24 31 36 39 38 38 40 42 46 43 41 37 33 29 26 24 21 21 18 19 20 19 19 14 14 14 16 13 17 16 12 13 21 26 34 36 42 37 36 36 45 32 31 31 31 22
31 27 29 32 40 38 41 39 42 48 45 43 39 35 30 27 23 20 20 17 19 19 17 18 14 15 16 17 19 19 17 12 12 19 29 34 38 44 43 31 36 41 32 32 30 45 21
32 30 30 29 34 38 41 38 46 50 44 43 40 34 30 27 24 21 19 16 18 18 16 16 14 15 17 14 19 21 17 18 15 15 13 22 36 29 31 32 33 26 38 35 34 27 40
31 30 34 34 33 36 35 43 47 51 43 42 40 35 30 27 24 20 18 16 16 16 15 14 14 16 20 16 13 17 20 18 18 19 10 22 30 37 20 36 29 39 30 33 35 33 23
31 33 35 41 36 37 37 36 42 49 42 42 40 36 30 26 24 19 16 14 15 13 12 12 14 13 11 13 17 17 13 13 13 15 13 16 19 32 28 32 31 35 22 38 34 31 27
29 32 38 39 37 34 37 35 39 46 41 41 39 35 29 26 22 17 14 13 13 10 9 12 8 12 9 15 16 13 5 6 8 13 12 22 12 29 28 33 32 36 29 27 39 30 28
36 28 34 40 36 34 36 34 36 43 39 39 39 34 27 24 19 16 13 12 12 5 9 11 13 11 10 14 7 6 6 6 9 10 10 16 16 39 36 38 27 32 31 19 25 38 28
35 37 31 40 35 31 28 33 36 42 37 37 37 32 26 22 17 15 11 10 9 9 9 8 11 8 11 14 5 2 8 7 10 9 12 12 14 33 27 24 22 26 25 30 11 22 21
35 35 36 36 49 35 31 36 38 38 34 36 35 30 24 20 14 12 9 10 8 5 6 9 11 6 8 10 4 5 7 7 11 10 12 8 12 21 32 32 21 27 26 24 21 15 13
37 35 39 32 35 33 31 32 34 35 32 34 32 29 23 17 13 10 8 10 5 3 2 5 10 6 4 9 6 3 9 7 7 11 10 8 13 16 21 24 21 20 21 18 18 13 6
40 38 37 40 34 41 34 31 33 33 30 31 29 26 21 15 12 9 9 7 3 3 2 7 9 6 10 10 4 6 10 6 11 15 10 4 14 22 23 18 15 20 19 21 15 12 3
42 40 40 43 35 40 32 29 32 31 28 29 27 23 19 13 11 8 5 2 5 1 1 4 8 5 9 12 12 12 4 12 13 16 9 10 18 19 19 11 14 22 18 14 11 7 1
47 42 42 39 37 41 38 26 27 32 28 27 24 20 17 12 10 5 1 6 2 2 2 3 3 5 11 6 11 9 7 7 9 7 9 9 11 20 21 17 19 23 25 5 3 2 2
48 46 45 38 39 37 39 27 30 32 26 25 21 18 15 11 8 1 6 5 1 3 2 1 6 5 7 8 7 7 8 6 10 15 12 4 4 16 17 15 16 26 8 6 4 4 4
57 45 43 40 38 31 44 28 22 28 24 21 19 15 11 8 6 3 8 2 2 5 4 1 2 2 4 4 5 8 8 8 5 3 6 5 7 16 15 16 19 18 15 4 4 3 6
52 42 37 43 39 31 45 29 20 25 21 18 16 13 7 6 3 4 5 3 4 5 5 6 2 3 3 7 4 6 6 6 6 8 8 7 9 13 14 18 12 13 10 4 2 2 3
48 41 34 43 42 32 44 25 22 20 19 16 14 11 6 3 2 6 4 4 10 7 5 3 3 5 4 6 9 5 4 5 6 11 7 6 5 9 13 10 12 10 10 5 4 2 1
53 38 39 44 41 30 46 31 18 18 17 14 13 8 4 3 2 6 4 10 11 5 5 6 6 8 8 7 7 3 7 5 8 11 7 5 5 8 12 11 16 14 8 9 5 2 1
38 36 43 42 38 32 40 28 23 18 15 13 11 8 4 5 5 6 7 10 9 4 6 3 3 6 7 5 3 5 7 7 13 14 10 9 4 7 4 10 13 16 17 14 15 5 5
37 36 36 38 34 32 32 30 22 17 14 12 11 5 6 8 7 12 11 10 6 4 7 8 8 9 8 4 4 5 7 10 14 11 9 11 10 3 4 3 10 25 21 15 14 10 11
36 30 34 35 32 33 37 31 16 17 13 11 12 8 5 5 12 16 15 11 9 5 6 10 7 9 9 4 6 8 7 14 13 12 11 7 5 8 4 2 9 8 15 19 20 24 12
15 30 26 35 29 34 30 29 23 17 12 13 13 10 7 7 12 15 17 16 12 11 11 6 7 9 9 11 8 5 9 12 10 12 10 8 6 7 4 3 4 5 10 16 19 20 18
14 38 35 34 37 31 32 29 19 16 12 12 10 10 9 9 13 15 14 16 15 14 12 12 13 7 9 6 6 4 8 10 8 10 13 11 8 6 3 6 7 9 13 15 16 18 18
12 32 20 32 33 27 29 28 19 16 12 12 12 11 11 11 16 18 18 19 18 16 14 13 15 9 9 9 9 7 7 4 3 7 10 8 9 7 1 3 1 4 4 7 14 13 15
20 38 27 23 32 27 34 27 19 15 12 13 12 11 13 12 17 20 20 19 20 18 13 14 12 8 11 10 9 5 3 3 1 4 7 6 2 1 2 7 3 6 5 6 7 10 10
32 30 26 24 33 29 35 24 19 15 13 13 11 12 13 13 21 18 19 18 21 21 16 14 12 11 12 11 6 4 3 4 4 2 7 11 11 7 3 3 2 7 6 5 7 11 12
30 17 22 19 26 29 28 27 19 16 14 14 13 13 13 13 10 18 22 23 23 22 20 16 14 13 12 11 7 4 4 6 5 7 6 10 7 11 9 6 4 7 8 8 7 4 7
28 30 29 24 29 30 32 24 20 16 15 14 11 14 13 13 12 18 17 20 22 20 20 16 16 14 13 11 9 6 4 6 5 6 6 7 6 5 6 3 5 7 8 8 6 9 12
31 28 27 21 32 30 27 23 21 18 16 14 12 11 12 14 12 18 18 19 20 21 19 17 19 12 13 14 11 8 6 5 5 3 10 6 9 7 5 9 10 8 10 12 18 20 24
Wind_Direction
325 329 335 330 336 339 334 337 341 343 342 343 343 338 333 321 318 310 310 305 305 302 306 310 297 299 298 298 304 303 305 291 292 230 204 199 194 198 199 204 203 210 212 207 217 200 186
320 322 331 324 331 334 337 338 342 340 339 340 342 338 331 321 318 310 312 306 304 304 308 308 293 294 291 291 277 284 291 279 267 222 205 205 187 195 206 204 201 208 199 201 216 224 186
311 317 319 321 330 332 331 333 334 335 336 338 341 337 329 322 317 310 311 305 306 306 311 307 294 292 292 292 279 287 280 274 246 241 247 222 198 190 194 197 199 209 205 205 216 218 223
308 310 310 312 310 320 320 315 319 330 333 336 339 336 329 325 315 310 311 309 310 306 316 314 302 300 297 293 294 287 280 270 232 237 245 229 188 192 205 188 190 209 206 203 211 214 187
302 307 306 307 305 307 319 321 318 325 329 334 338 335 330 325 315 313 310 312 313 306 323 324 319 319 320 313 306 300 275 264 229 226 247 243 205 206 173 180 192 203 205 206 218 209 209
293 297 301 306 307 303 311 313 315 323 327 332 336 335 330 325 315 316 312 316 314 308 324 332 336 329 312 311 308 314 251 201 194 200 242 222 222 215 195 180 186 190 195 209 220 214 209
293 292 294 299 301 302 310 308 314 321 324 329 335 335 332 324 315 319 315 322 309 296 333 349 328 326 323 320 321 22 103 157 165 205 229 221 207 195 183 181 193 192 194 204 213 223 244
288 286 290 291 295 298 304 313 308 318 322 327 334 335 331 325 317 320 316 326 316 305 320 354 339 329 326 336 44 55 153 167 194 203 209 197 196 198 199 176 184 189 189 201 207 200 199
277 283 281 286 291 294 304 300 306 315 320 326 333 336 332 324 321 320 312 331 314 294 305 334 343 327 335 2 37 137 177 189 216 189 186 166 187 186 177 185 194 193 190 194 171 177 193
268 271 277 278 283 292 298 298 307 315 319 326 332 336 332 327 323 319 312 332 302 278 306 325 353 355 358 333 349 189 174 187 206 193 153 142 154 142 158 162 171 166 173 165 170 154 139
258 263 268 271 269 282 288 289 308 315 317 325 331 336 332 332 322 321 322 321 194 140 283 349 17 38 73 34 78 104 157 151 109 125 134 141 135 125 145 147 158 150 152 152 158 138 135
247 253 260 266 267 272 284 294 296 314 315 323 330 336 332 333 323 318 333 161 146 46 158 3 47 78 62 51 62 97 112 56 110 95 118 121 136 132 126 149 152 155 147 118 139 150 318
237 239 249 259 261 277 271 283 297 312 312 320 329 333 333 335 322 327 165 170 61 345 57 330 13 82 93 38 61 90 80 76 104 130 108 119 125 144 140 121 146 150 144 122 71 56 195
228 234 240 247 255 268 267 268 282 302 307 316 326 331 333 339 323 306 169 117 27 127 100 104 92 104 96 95 74 75 108 94 100 83 91 126 95 139 130 140 163 168 145 114 146 169 161
228 226 235 240 247 252 269 265 281 293 301 312 321 326 330 338 318 168 168 101 122 152 150 42 324 139 141 104 116 116 87 141 108 103 63 99 105 150 152 132 159 186 217 95 53 35 133
245 225 221 237 244 251 253 256 269 290 294 306 315 320 325 335 306 177 164 201 127 152 141 87 25 52 113 145 100 106 101 183 209 189 46 96 112 139 152 155 162 182 176 156 128 108 137
251 228 211 226 240 236 255 246 235 287 288 298 307 313 318 320 285 157 141 220 130 141 168 101 96 97 121 115 123 101 161 203 212 185 145 74 106 159 168 178 178 162 154 134 114 42 101
247 228 208 220 233 230 253 246 242 284 280 289 297 304 304 263 190 164 176 169 150 152 137 119 103 95 109 119 126 126 161 189 198 154 149 158 146 141 198 178 189 196 207 180 139 238 187
256 228 204 217 224 226 243 245 244 271 269 275 284 287 247 200 140 165 183 171 159 140 150 122 128 127 113 130 112 132 180 175 175 169 172 161 157 136 185 223 210 211 200 209 210 242 204
252 224 201 217 215 229 239 239 233 256 254 265 273 264 222 201 198 162 190 179 187 168 146 149 142 117 88 87 117 160 164 160 168 180 173 167 162 181 166 144 221 219 213 201 203 208 210
245 209 217 214 220 227 238 235 223 238 240 254 261 262 229 191 194 170 179 189 179 181 164 147 158 149 142 116 99 144 164 158 158 158 164 146 186 218 199 162 184 194 213 214 221 230 223
200 186 204 214 220 230 239 226 219 222 230 245 245 252 227 203 167 180 183 180 183 201 154 159 168 164 156 176 127 163 148 179 179 173 165 181 189 192 231 237 235 222 212 207 225 239 250
215 192 200 208 221 221 228 225 208 214 225 242 249 234 220 207 182 179 194 186 192 197 181 177 145 175 174 173 186 156 148 172 197 202 204 201 207 196 184 261 269 279 244 231 225 222 225
185 190 215 212 216 219 224 211 203 207 218 235 235 220 217 202 185 179 193 202 198 193 188 174 169 171 157 150 144 145 143 150 166 187 195 217 212 184 185 171 237 219 221 215 217 227 233
181 189 202 199 225 214 218 201 195 203 212 227 229 218 208 203 189 202 205 207 198 203 200 195 183 177 162 147 115 104 92 103 177 177 178 157 143 190 217 224 272 255 203 178 162 200 225
197 202 186 194 219 224 213 191 192 197 211 221 217 211 214 201 199 207 206 196 201 203 206 202 197 185 178 162 145 174 183 176 166 204 208 195 187 196 193 267 299 172 197 188 218 231 238
202 211 202 196 216 220 224 183 185 194 207 212 207 212 214 214 208 199 198 199 197 198 207 195 194 190 185 187 169 193 198 181 178 196 211 200 198 213 222 242 253 231 255 256 220 245 244
168 191 202 216 222 219 211 173 184 190 203 205 208 211 209 201 197 193 199 196 196 198 198 193 198 206 200 178 198 185 205 191 205 203 196 189 187 207 223 259 279 260 251 238 239 258 271
186 199 201 200 221 206 182 170 180 188 195 196 205 204 200 183 193 180 184 189 203 211 211 196 200 208 195 189 195 194 190 179 214 241 218 199 203 173 208 211 233 262 263 254 258 270 286
Height
3132 3128 3126 3121 3117 3112 3108 3103 3098 3094 3089 3083 3077 3071 3066 3060 3055 3051 3049 3047 3044 3042 3040 3037 3035 3033 3032 3031 3029 3025 3025 3025 3022 3023 3024 3030 3037 3045 3049 3056 3065 3070 3076 3084 3090 3093 3100
3131 3126 3123 3119 3115 3110 3106 3100 3095 3091 3086 3081 3074 3067 3062 3056 3052 3048 3045 3043 3040 3038 3037 3034 3031 3030 3028 3028 3025 3023 3022 3022 3022 3021 3023 3027 3033 3041 3048 3054 3060 3066 3076 3083 3085 3091 3085
3127 3125 3121 3116 3113 3107 3103 3098 3093 3088 3083 3078 3071 3065 3059 3054 3049 3045 3042 3039 3037 3036 3033 3030 3028 3026 3024 3026 3021 3020 3020 3019 3020 3020 3020 3024 3030 3034 3041 3051 3059 3067 3073 3078 3082 3084 3091
3123 3120 3118 3114 3109 3105 3101 3097 3091 3086 3081 3074 3067 3061 3055 3050 3046 3042 3039 3036 3034 3033 3031 3027 3026 3024 3020 3020 3019 3017 3015 3014 3016 3018 3020 3020 3028 3033 3037 3050 3058 3063 3069 3072 3080 3082 3082
3117 3116 3113 3110 3106 3102 3097 3093 3089 3083 3077 3071 3064 3057 3052 3047 3042 3038 3036 3034 3032 3030 3028 3025 3023 3020 3018 3017 3015 3012 3011 3010 3013 3017 3018 3019 3025 3028 3035 3043 3054 3059 3063 3070 3078 3079 3085
3110 3109 3109 3105 3101 3098 3094 3089 3085 3080 3074 3067 3061 3054 3048 3044 3039 3035 3034 3031 3030 3028 3027 3023 3020 3021 3017 3017 3013 3009 3007 3009 3013 3016 3018 3019 3023 3027 3030 3039 3043 3051 3062 3066 3070 3079 3083
3106 3102 3102 3100 3096 3094 3090 3085 3081 3077 3070 3064 3058 3051 3045 3041 3037 3034 3032 3030 3031 3029 3025 3023 3021 3017 3016 3015 3012 3010 3009 3011 3014 3016 3016 3020 3023 3024 3031 3036 3047 3053 3061 3065 3071 3078 3080
3098 3097 3092 3092 3092 3089 3085 3081 3077 3073 3067 3060 3055 3048 3042 3037 3034 3032 3031 3028 3027 3027 3024 3022 3021 3018 3015 3012 3012 3012 3012 3013 3014 3017 3021 3022 3023 3027 3032 3040 3049 3055 3060 3068 3072 3077 3081
3088 3089 3086 3083 3086 3083 3080 3077 3073 3069 3063 3057 3052 3045 3039 3035 3032 3031 3029 3027 3025 3024 3024 3022 3019 3017 3016 3014 3013 3013 3014 3014 3014 3016 3018 3021 3025 3028 3033 3041 3049 3054 3058 3065 3070 3074 3077
3077 3079 3079 3075 3076 3073 3075 3071 3069 3064 3059 3054 3048 3042 3036 3032 3032 3029 3027 3025 3024 3023 3023 3023 3019 3018 3017 3015 3014 3014 3014 3016 3014 3018 3021 3024 3027 3028 3033 3041 3047 3053 3060 3063 3068 3071 3074
3066 3068 3069 3067 3065 3069 3069 3066 3064 3060 3055 3050 3045 3039 3034 3029 3029 3027 3025 3023 3023 3024 3024 3025 3020 3019 3017 3017 3017 3015 3016 3013 3017 3020 3025 3027 3026 3029 3038 3044 3049 3053 3058 3062 3066 3072 3076
3051 3055 3058 3058 3060 3061 3063 3060 3059 3055 3051 3047 3042 3036 3031 3029 3027 3026 3022 3023 3024 3026 3023 3023 3023 3021 3020 3020 3018 3018 3018 3018 3022 3024 3027 3030 3032 3036 3040 3046 3050 3054 3058 3064 3069 3074 3076
3034 3039 3044 3047 3051 3051 3052 3054 3054 3051 3047 3043 3038 3033 3029 3027 3026 3022 3022 3024 3026 3024 3026 3025 3022 3022 3022 3022 3021 3022 3022 3023 3027 3031 3033 3035 3038 3041 3045 3049 3053 3056 3061 3068 3074 3073 3077
3017 3025 3029 3035 3039 3040 3044 3047 3047 3047 3042 3039 3035 3031 3028 3025 3025 3021 3022 3025 3025 3025 3025 3024 3024 3023 3025 3026 3024 3025 3027 3026 3027 3028 3032 3038 3043 3044 3048 3052 3054 3058 3061 3062 3067 3072 3073
2999 3009 3017 3022 3028 3031 3037 3039 3041 3040 3038 3035 3031 3028 3026 3024 3023 3020 3023 3024 3025 3026 3026 3026 3023 3024 3025 3027 3028 3029 3029 3031 3032 3035 3037 3039 3043 3046 3050 3053 3058 3060 3062 3064 3065 3067 3072
2985 2992 3001 3012 3019 3022 3027 3031 3034 3034 3032 3030 3027 3025 3024 3023 3021 3021 3023 3023 3024 3025 3025 3026 3026 3024 3024 3027 3029 3027 3031 3033 3035 3038 3040 3041 3045 3046 3052 3055 3058 3059 3064 3067 3067 3072 3071
2970 2976 2985 2997 3008 3012 3018 3022 3025 3027 3027 3025 3023 3022 3022 3020 3020 3021 3022 3022 3024 3026 3026 3026 3025 3025 3025 3028 3030 3031 3032 3033 3035 3038 3041 3043 3046 3052 3053 3057 3059 3063 3063 3066 3069 3070 3071
2958 2962 2975 2987 2997 3003 3009 3015 3018 3021 3022 3020 3019 3020 3019 3018 3020 3019 3021 3021 3023 3025 3025 3025 3027 3027 3027 3029 3030 3032 3033 3033 3035 3038 3042 3043 3047 3052 3054 3055 3057 3059 3064 3066 3068 3071 3071
2951 2956 2965 2976 2988 2996 3002 3008 3010 3015 3016 3015 3014 3015 3015 3017 3017 3019 3020 3022 3023 3026 3026 3027 3028 3030 3030 3030 3032 3032 3034 3035 3037 3040 3042 3045 3047 3051 3055 3059 3058 3059 3061 3064 3067 3069 3071
2946 2950 2958 2971 2981 2989 2995 3001 3003 3009 3011 3011 3011 3011 3012 3013 3015 3016 3020 3022 3024 3025 3026 3026 3027 3029 3032 3032 3031 3033 3032 3035 3037 3040 3043 3045 3047 3049 3051 3052 3053 3057 3059 3062 3065 3067 3069
2942 2946 2954 2967 2976 2982 2988 2994 2998 3003 3005 3006 3006 3006 3008 3009 3011 3014 3018 3021 3023 3024 3025 3026 3027 3028 3029 3033 3033 3033 3034 3036 3039 3041 3043 3045 3047 3050 3050 3051 3052 3053 3056 3060 3062 3063 3065
2933 2942 2954 2965 2971 2975 2983 2988 2992 2997 2999 3001 3003 3004 3004 3006 3008 3012 3016 3019 3021 3023 3024 3026 3027 3028 3029 3029 3031 3033 3033 3036 3038 3041 3042 3045 3046 3048 3049 3050 3050 3051 3053 3055 3057 3060 3061
2927 2932 2941 2953 2965 2972 2976 2980 2987 2992 2995 2996 2999 3001 3002 3004 3006 3011 3014 3017 3018 3021 3024 3024 3026 3027 3028 3031 3033 3033 3035 3037 3039 3040 3041 3043 3045 3046 3047 3048 3048 3049 3048 3050 3052 3053 3055
2920 2931 2945 2953 2959 2966 2971 2975 2982 2987 2990 2993 2995 2997 2999 3002 3004 3008 3011 3014 3016 3019 3021 3024 3026 3027 3031 3032 3034 3035 3037 3038 3039 3041 3043 3044 3046 3047 3047 3047 3050 3046 3046 3047 3049 3050 3050
2917 2926 2933 2947 2954 2960 2966 2971 2979 2984 2986 2989 2991 2994 2996 2997 3002 3004 3008 3011 3014 3017 3020 3023 3026 3028 3030 3033 3034 3035 3038 3040 3040 3041 3043 3044 3046 3047 3048 3047 3047 3044 3045 3046 3046 3047 3048
2921 2932 2936 2942 2951 2957 2960 2969 2976 2980 2983 2985 2988 2991 2993 2996 2998 3001 3005 3009 3012 3015 3019 3022 3025 3027 3029 3032 3034 3036 3037 3037 3039 3040 3041 3041 3042 3046 3046 3047 3044 3043 3044 3044 3044 3044 3045
2915 2929 2935 2941 2948 2953 2957 2966 2972 2977 2980 2983 2985 2988 2990 2993 2995 2998 3002 3006 3008 3012 3016 3019 3022 3025 3028 3031 3033 3034 3035 3036 3038 3037 3037 3040 3042 3042 3044 3044 3042 3042 3043 3043 3045 3047 3042
2911 2918 2926 2936 2944 2949 2954 2963 2969 2973 2977 2981 2983 2985 2988 2991 2993 2996 3001 3004 3008 3010 3013 3018 3022 3024 3027 3030 3031 3032 3034 3035 3036 3037 3038 3038 3040 3042 3044 3044 3044 3041 3041 3043 3042 3039 3040
2910 2918 2926 2932 2941 2945 2952 2961 2966 2971 2975 2978 2981 2983 2986 2990 2994 2996 3000 3004 3007 3010 3013 3015 3018 3020 3024 3026 3028 3030 3032 3034 3035 3036 3037 3039 3037 3039 3040 3037 3036 3036 3036 3037 3035 3035 3034